Theta_e
346 347 351 352 355 353 357 356 352 354 350 350 344 345 346 349 348 353 343 343 330 340 342 334 341 341 335 335 334 335 335 335 338 342 336 342 338 338 338 338 339 339 340 333 336 339 340 342 335
347 349 351 354 358 359 355 353 353 351 351 347 348 349 350 351 346 344 342 341 324 338 342 332 340 341 332 330 329 329 330 336 342 340 340 342 341 340 338 338 339 338 340 338 341 339 340 342 333
346 351 354 353 355 356 355 352 351 350 349 349 348 348 349 348 345 342 343 335 323 332 339 327 339 341 329 328 329 330 333 340 337 340 339 341 342 342 342 341 339 340 334 340 339 339 339 341 335
352 352 355 359 355 352 352 352 350 350 349 347 348 348 346 346 343 341 342 328 322 325 339 328 336 342 330 329 331 334 343 335 335 337 339 342 342 342 342 340 339 338 339 338 336 336 336 341 340
353 350 354 352 351 352 351 351 350 349 348 348 347 347 345 343 340 341 337 323 322 329 335 331 335 341 333 328 329 330 332 332 343 344 340 342 340 342 342 338 339 339 336 335 335 341 338 339 341
349 348 352 354 352 352 350 350 349 348 347 347 346 346 344 341 339 339 332 323 322 326 339 335 329 341 334 329 329 329 329 332 335 338 338 340 343 343 338 339 338 341 335 336 342 342 342 340 341
348 352 353 352 352 351 351 349 348 348 347 347 346 346 345 341 337 337 333 325 327 324 326 334 325 343 338 331 330 331 328 331 336 336 336 339 338 343 339 338 336 336 335 334 338 342 343 342 342
347 351 354 350 352 350 347 348 348 348 348 347 346 347 345 344 340 338 333 324 326 325 324 324 324 341 339 334 331 334 332 329 336 338 339 339 339 338 339 340 342 337 334 333 339 341 342 342 341
345 353 355 351 351 349 347 349 348 347 347 346 345 346 345 342 341 339 337 326 327 327 325 326 326 339 338 336 333 335 335 328 331 337 338 338 341 340 337 341 342 338 337 334 336 337 338 340 341
348 349 352 346 346 348 347 349 348 348 346 346 346 345 343 343 341 340 336 328 328 330 326 325 324 341 336 335 333 335 337 330 330 331 337 336 337 337 340 340 341 336 337 336 337 338 338 338 338
345 346 346 345 346 348 347 348 348 348 349 347 347 347 343 342 341 339 328 325 324 327 328 324 324 326 333 335 331 335 337 330 330 332 337 335 336 336 337 341 339 338 336 338 338 338 338 341 339
349 346 344 345 347 346 347 348 348 348 348 346 347 346 343 343 343 342 330 329 333 330 327 325 326 326 327 329 332 337 331 333 336 338 339 337 338 337 337 337 337 338 338 335 338 338 338 341 338
349 345 345 345 346 347 348 348 349 347 345 346 347 345 344 347 346 347 343 336 333 332 328 326 327 329 331 333 337 333 333 333 333 338 338 335 340 342 343 341 337 335 336 335 335 337 339 340 340
347 348 348 345 345 346 347 348 347 347 347 347 347 346 347 348 346 345 343 340 337 339 339 334 332 333 334 338 335 333 338 335 334 337 339 344 344 345 346 343 343 337 337 335 334 335 341 339 340
345 349 344 345 346 347 345 347 349 347 347 347 347 346 347 348 346 345 343 338 337 336 335 340 337 336 337 337 334 342 341 341 343 343 344 345 345 345 346 346 341 337 337 336 335 337 343 341 339
343 343 346 345 344 346 344 347 347 347 347 345 345 345 348 348 346 345 342 338 335 335 335 339 340 339 338 333 340 344 346 346 347 346 346 345 344 344 345 345 345 345 339 336 338 341 341 342 341
337 344 341 341 345 345 345 349 346 346 346 346 345 347 348 348 346 343 340 337 338 335 335 343 340 335 332 336 342 345 346 346 347 347 346 347 345 346 345 345 346 346 346 337 338 343 342 340 342
339 338 336 336 342 346 347 350 347 345 345 346 346 346 346 347 346 344 341 339 336 335 336 342 342 342 339 344 345 346 346 346 347 346 344 346 346 346 346 346 345 346 345 344 339 337 338 340 342
338 334 332 333 343 346 348 349 348 344 344 345 345 346 346 346 345 345 343 342 340 338 337 343 344 345 345 345 346 346 346 345 344 346 345 346 345 346 345 347 346 346 345 345 341 342 343 342 341
329 329 333 336 346 346 349 347 348 345 344 343 344 344 345 345 345 345 345 343 341 340 339 340 343 344 344 344 345 345 346 346 344 342 346 346 347 346 346 346 346 347 346 344 344 342 343 342 343
327 331 334 336 346 346 347 347 351 346 344 343 342 343 343 344 344 343 343 344 342 340 340 340 343 343 344 344 344 344 345 346 346 343 341 343 345 346 345 345 346 346 346 345 344 344 344 342 343
326 325 328 339 344 337 345 334 343 347 346 343 342 341 341 342 342 342 342 342 342 337 338 340 341 342 342 344 344 343 344 346 346 345 339 340 344 346 345 345 345 347 347 345 344 345 345 343 342
325 328 338 344 339 342 345 342 341 344 350 348 344 343 341 341 341 341 339 340 340 339 337 337 339 340 341 342 343 343 344 344 346 347 347 340 340 346 344 346 347 347 347 345 345 345 346 344 344
323 326 328 331 334 334 328 346 338 340 338 343 345 344 343 342 341 340 339 337 336 338 337 336 338 340 340 340 339 339 341 343 343 344 347 343 336 341 343 346 346 347 347 347 347 344 346 346 344
325 327 330 330 332 330 333 345 342 337 337 340 344 344 344 343 342 342 342 340 338 337 336 336 334 334 336 338 340 340 340 340 340 342 345 346 340 339 341 345 347 346 347 347 346 346 345 345 344
326 328 330 332 331 336 333 336 337 343 344 337 338 343 343 344 343 343 342 342 341 339 337 336 335 334 334 335 336 338 337 337 338 341 345 346 343 342 342 345 345 344 344 345 344 344 344 345 345
327 330 324 325 325 335 335 337 339 346 344 349 347 347 348 348 345 344 342 342 342 341 341 339 336 338 339 338 338 340 341 341 342 343 346 347 346 343 345 347 346 344 341 344 343 345 344 344 345
326 323 328 327 333 338 337 340 340 350 348 347 346 345 346 347 344 344 344 342 341 341 340 341 342 341 340 339 340 341 341 342 342 343 345 346 345 344 345 347 345 346 346 343 341 345 345 346 346
328 328 324 326 328 336 338 338 337 349 347 347 347 346 348 347 343 344 344 343 341 340 340 341 341 341 341 341 341 341 342 342 343 344 345 345 345 344 344 345 344 345 346 346 343 344 343 345 346
325 326 327 331 331 328 333 336 332 335 339 345 348 347 347 345 342 342 344 343 342 341 341 342 342 342 342 342 342 342 343 344 344 344 345 345 345 345 345 345 345 345 345 345 346 345 343 342 344
Wind_Speed
10 8 5 3 0 1 3 1 4 8 7 2 13 4 6 4 4 1 16 26 28 30 25 24 20 18 18 19 18 16 14 13 11 8 8 7 7 8 9 8 8 8 9 11 13 14 16 17 15
10 8 4 2 2 3 3 1 8 8 9 10 8 5 4 3 3 8 26 27 28 29 24 24 23 19 18 18 17 15 12 12 9 8 8 7 8 6 6 9 11 12 12 13 13 14 16 15 14
9 8 2 1 1 7 3 3 11 15 13 9 4 5 3 2 4 25 22 32 31 29 24 25 24 19 18 16 15 13 12 11 9 8 8 9 9 7 8 14 14 14 14 14 13 13 14 14 13
6 4 3 2 7 3 2 6 14 16 12 10 7 6 4 2 16 15 31 31 30 28 23 25 25 20 17 16 15 14 11 10 9 9 10 11 11 13 17 18 17 14 15 13 13 13 13 12 12
3 2 2 3 5 3 3 11 12 9 12 13 8 5 5 16 14 24 32 31 29 27 23 25 24 20 17 16 14 13 11 10 10 9 10 11 12 15 16 18 15 13 13 13 13 13 12 11 10
3 1 2 4 4 3 5 10 15 10 12 13 8 12 7 17 27 32 31 31 29 29 23 21 22 19 17 16 13 11 10 10 9 9 10 11 11 12 13 14 13 12 12 12 13 12 10 9 6
3 2 4 2 2 4 3 11 7 9 13 11 15 9 8 19 26 35 31 30 28 28 25 22 20 17 16 14 12 10 9 8 9 9 9 10 10 11 11 11 10 10 10 10 10 11 10 7 6
2 2 5 2 1 3 3 12 7 7 6 15 13 7 11 22 28 32 31 31 26 24 25 23 21 19 16 14 11 9 8 7 7 8 8 8 9 9 10 10 10 7 7 10 10 8 8 6 4
3 2 2 3 4 3 2 10 6 5 12 5 9 9 17 29 32 31 31 30 28 26 23 21 21 17 16 14 11 8 7 6 6 6 7 7 8 9 9 9 9 9 7 7 6 5 4 4 5
3 1 2 2 3 1 5 10 11 7 13 5 8 11 28 33 32 32 32 35 30 25 25 22 21 19 17 15 12 9 8 6 6 5 5 5 7 8 9 8 8 8 9 8 6 3 3 3 5
2 1 3 5 5 3 3 12 10 10 8 10 15 25 35 33 31 29 33 33 29 24 25 24 22 19 17 16 12 10 9 7 6 6 6 6 6 7 8 8 8 7 7 8 7 6 3 0 3
2 1 1 6 3 3 3 9 8 8 2 3 17 29 38 34 31 30 34 32 29 26 24 23 22 21 18 15 13 10 8 7 7 7 8 7 7 7 8 8 8 8 7 7 6 5 3 2 6
2 1 4 7 5 1 2 7 5 4 4 13 23 29 32 31 29 27 29 31 27 26 24 23 21 19 17 15 13 12 9 8 7 7 8 8 9 9 7 8 8 9 8 8 6 5 4 4 7
8 11 11 7 4 5 4 5 1 4 11 18 23 29 28 27 31 32 30 28 26 23 23 23 21 19 16 15 13 11 9 8 9 9 8 7 7 8 7 9 9 10 9 8 7 7 5 5 7
11 8 7 6 8 4 10 4 4 11 13 19 20 25 26 24 27 30 29 30 23 21 26 21 20 19 18 16 14 11 10 9 7 8 8 8 7 7 6 7 9 11 11 10 8 10 5 5 9
7 4 6 4 10 3 5 2 7 11 15 16 19 21 24 24 27 30 29 28 29 31 23 19 19 19 19 17 14 12 11 10 8 8 7 7 7 7 7 7 9 8 11 12 11 11 8 6 7
4 9 11 6 4 6 4 4 11 12 14 15 17 20 24 25 23 22 30 36 29 34 25 17 17 18 18 18 16 14 13 12 9 11 11 10 9 7 7 8 9 11 13 14 14 13 11 9 8
10 11 10 9 2 5 7 7 12 15 13 16 16 22 25 27 28 26 29 33 32 32 26 20 19 18 17 15 16 16 15 14 12 11 10 11 11 10 9 8 9 9 13 15 16 16 14 12 12
10 11 14 12 1 2 3 6 14 17 14 16 18 21 25 29 27 26 30 29 29 32 32 28 24 21 19 20 19 19 18 15 17 14 11 10 10 10 10 9 9 11 12 14 15 15 14 14 13
9 10 7 6 2 1 2 3 12 19 19 21 22 24 26 25 26 28 30 33 33 33 35 34 29 25 23 23 21 19 17 15 15 17 16 15 13 13 12 10 9 7 12 13 16 18 16 16 15
6 6 3 4 2 2 6 2 4 9 9 17 19 21 24 29 30 30 32 34 35 37 36 34 31 27 25 23 22 21 20 20 18 19 20 18 17 16 15 13 13 10 11 13 16 19 18 17 15
8 4 3 3 2 3 6 4 1 3 12 14 20 22 24 25 26 28 30 33 37 38 33 33 32 30 28 26 25 24 23 23 21 18 18 19 18 18 17 15 14 13 12 13 16 19 17 16 15
3 5 4 4 2 2 3 4 4 3 7 15 20 23 25 27 30 33 36 39 39 38 38 34 33 32 31 29 27 26 26 25 22 21 20 19 20 19 17 17 16 15 14 14 16 21 19 19 17
9 5 5 4 1 3 4 3 1 3 5 2 18 24 26 28 30 33 33 34 38 41 41 39 36 34 32 32 30 29 29 27 25 24 21 20 19 17 20 19 19 18 17 16 16 23 22 20 20
4 3 2 1 1 2 3 3 4 10 5 4 6 17 22 24 25 28 32 35 38 38 40 43 42 38 35 33 31 31 31 29 28 26 24 23 20 19 21 20 20 20 19 17 17 22 25 23 22
2 2 2 2 3 2 3 2 4 7 6 1 3 1 4 9 15 22 27 32 35 40 39 40 41 38 37 36 34 32 32 33 31 26 26 22 21 19 19 17 18 18 18 16 15 19 25 25 24
4 1 2 5 0 2 3 1 2 3 5 4 6 7 7 4 3 6 12 21 27 32 39 39 38 36 34 34 33 32 29 28 25 24 23 23 22 19 19 16 15 15 16 18 19 19 24 24 24
1 6 1 1 0 1 0 2 2 3 5 4 8 10 9 9 10 8 6 3 9 18 24 28 37 39 35 33 31 31 28 26 25 24 23 22 21 20 19 16 13 12 13 18 22 21 22 25 26
1 2 5 4 2 1 4 3 3 7 3 2 3 5 6 6 11 13 15 9 2 11 14 15 20 26 32 32 30 28 27 25 24 23 23 21 21 22 21 19 16 14 13 15 22 23 22 24 27
2 3 1 2 4 1 2 2 2 2 3 1 1 1 1 4 13 16 18 12 6 2 5 8 10 13 19 20 21 24 23 23 23 22 22 23 22 23 24 23 20 20 17 14 17 22 26 26 29
Wind_Direction
144 138 115 56 148 282 333 148 120 124 133 30 155 163 161 61 155 151 156 161 161 155 153 149 144 142 143 138 136 136 138 135 126 119 102 106 116 124 135 146 142 124 114 106 103 107 113 121 112
144 131 92 67 293 21 20 193 155 141 126 127 106 103 77 85 73 141 151 157 163 154 151 151 147 145 143 136 133 134 132 123 123 117 110 114 112 117 142 145 134 126 121 109 109 108 112 113 107
154 141 112 223 281 37 31 72 119 110 118 137 107 79 74 77 126 145 160 155 161 156 152 152 148 147 145 134 128 126 123 123 120 118 113 112 106 89 131 141 133 126 120 117 120 114 112 110 111
134 126 83 290 29 49 25 116 130 123 121 160 147 100 91 163 144 158 157 156 160 156 150 153 151 147 148 133 129 127 125 121 108 108 114 112 105 91 110 128 130 125 119 125 126 122 123 123 120
163 140 98 47 30 18 69 138 136 142 147 162 155 129 112 146 151 154 158 159 160 156 153 156 155 151 153 141 134 131 126 119 107 106 112 115 114 110 112 122 124 123 124 123 125 124 127 128 123
307 260 79 54 35 80 120 154 146 129 141 147 138 135 149 164 159 159 163 162 163 162 158 158 160 159 158 150 143 134 121 119 109 108 113 120 117 122 123 123 124 126 127 130 129 127 122 119 129
283 267 123 134 50 89 124 161 175 150 147 171 150 140 146 168 167 162 166 165 163 167 170 165 164 164 165 158 153 140 128 121 118 112 113 123 127 131 138 132 131 133 136 136 136 127 118 105 107
227 278 152 139 100 116 99 170 183 172 134 140 160 155 171 170 167 164 166 167 165 166 175 174 171 167 174 166 164 154 138 130 123 122 122 124 136 140 146 150 143 150 142 143 142 135 129 117 116
191 237 169 160 172 120 154 170 139 111 136 152 173 157 163 159 160 164 167 170 168 172 178 177 175 173 179 175 174 172 161 150 148 139 138 140 140 148 154 154 155 168 166 166 166 156 148 141 112
224 276 182 214 160 143 158 173 157 156 148 132 113 132 155 157 163 167 172 172 175 176 182 183 182 182 182 184 190 189 183 177 178 169 155 152 156 151 159 163 156 169 176 185 191 181 161 150 181
211 314 221 235 242 262 180 185 181 171 191 192 171 150 155 162 166 170 174 177 179 180 182 185 190 189 189 193 200 200 196 197 203 205 185 183 178 169 165 175 172 182 182 187 182 170 172 263 210
323 350 12 327 286 294 220 167 160 182 172 195 170 162 160 166 171 174 178 179 182 184 188 189 196 192 197 203 206 207 208 212 218 221 204 198 184 189 175 175 184 197 203 207 195 188 146 91 146
208 134 200 201 210 274 264 185 124 72 46 136 152 160 165 168 171 174 177 178 181 186 189 197 199 201 200 205 206 210 214 218 220 219 204 201 201 204 199 204 195 201 207 212 210 200 165 137 136
306 293 260 237 237 138 103 126 256 86 118 131 150 161 168 172 177 180 180 179 182 190 197 204 206 207 205 209 211 216 219 211 214 210 209 204 207 208 195 209 213 219 219 217 202 198 179 196 172
295 307 294 200 177 117 135 118 60 132 129 136 152 161 168 173 182 181 182 175 179 183 194 205 209 208 209 211 210 210 202 202 197 203 209 215 212 208 196 214 215 222 222 228 208 197 195 221 194
313 315 350 148 162 127 190 59 125 142 141 143 154 167 170 173 183 187 181 177 177 181 196 202 211 213 212 208 206 200 200 199 207 216 223 221 219 230 217 215 221 226 227 226 206 200 216 201 199
344 302 313 340 205 132 203 114 158 161 150 153 165 171 175 174 182 181 181 178 191 188 201 211 212 217 215 210 210 213 215 214 233 235 236 237 239 231 240 236 234 240 236 222 214 214 210 235 214
311 307 300 287 122 191 158 136 159 172 167 165 175 174 179 184 188 186 185 193 202 200 207 216 213 210 213 217 220 222 226 230 235 232 232 231 241 239 247 258 238 243 230 222 219 221 221 220 213
291 294 291 285 15 223 257 155 175 177 178 175 182 185 190 194 193 195 199 205 210 217 221 219 218 221 223 226 227 229 230 235 237 235 231 234 236 233 233 251 246 237 236 229 220 218 223 214 211
263 272 270 280 31 238 9 295 168 180 194 189 188 190 197 197 200 204 207 211 217 220 221 224 223 221 221 223 228 236 244 248 249 242 239 238 243 244 247 251 274 253 244 226 225 224 221 219 225
242 235 223 286 16 72 310 137 149 197 211 204 207 205 201 204 203 208 212 215 218 223 225 225 223 222 221 222 228 234 244 250 250 247 246 243 244 250 253 250 260 269 242 234 228 220 218 220 223
311 238 272 215 251 341 350 349 87 177 206 215 214 212 211 211 214 215 218 220 220 223 222 223 225 227 228 228 231 237 245 253 257 260 260 255 251 251 257 254 261 266 258 237 230 217 218 216 218
322 34 66 105 119 305 32 294 47 134 187 220 221 219 216 214 217 217 218 221 222 223 224 224 226 229 231 233 237 245 250 255 261 264 268 267 255 256 257 260 260 260 256 245 229 219 218 220 222
148 83 75 85 285 253 6 269 112 17 330 238 212 218 219 218 221 226 226 226 226 226 226 226 227 228 233 238 242 248 251 254 261 265 262 267 263 261 266 261 259 259 253 251 241 225 223 225 229
184 179 285 211 172 359 349 205 2 333 348 251 185 212 221 225 228 227 226 225 227 228 229 229 230 232 235 239 245 250 252 256 262 265 264 262 267 263 262 262 263 262 255 253 245 229 224 222 225
63 325 315 20 341 39 145 25 26 333 319 242 172 211 212 232 239 243 239 236 233 230 230 232 236 235 236 241 247 251 255 256 259 258 258 258 263 269 266 267 263 267 258 243 251 237 224 227 231
140 109 57 110 107 237 347 200 265 28 122 122 90 91 60 29 338 304 243 236 236 232 232 233 236 239 238 242 247 251 254 255 257 253 252 255 259 261 259 258 272 256 246 233 239 242 225 229 234
323 127 179 54 284 85 303 275 103 144 142 50 39 23 16 28 46 53 59 283 259 234 244 238 238 243 247 249 251 255 257 257 256 252 250 252 256 254 258 256 266 268 249 237 231 243 238 236 236
180 173 69 104 337 237 176 176 183 187 180 71 15 346 357 23 52 55 57 36 285 241 245 240 241 243 245 248 253 253 254 256 254 247 238 242 249 253 255 253 250 256 260 250 234 235 237 246 247
328 48 22 235 170 54 331 158 65 233 188 158 318 327 18 78 67 60 56 50 66 178 231 229 238 250 250 252 256 254 247 252 252 244 240 236 238 242 245 246 243 246 246 243 251 240 242 241 241